www.pogodaiklimat.ru

АРХИВ ПОГОДЫ в Шарлотте

Время (UTC), дата Ветер
(напр.,м/с)
 
Видим.   Явления Облачность Т
(С)
Тd
(С)
f
(%)
Тe
(С)
Тes
(С)
Комфортность

P
(гПа)

Po
(гПа)
Тmin
(С)
Tmax
(С)
R
(мм)
SD
(см)
09:52 24.02 ЮВ  11 км    5/0 4500 м
[средняя верхняя] 
+13.3  +12.8  97  +12  +12    1022.9  995.9         
10:52 24.02 Ю  11 км    8/8 210 м  +13.3  +13.3  100  +13  +13    1022.9  995.9         
11:50 24.02 Ю  10 км  дымка  10/10 90 м  +15.0  +15.0  100  +14  +14      996.2         
11:52 24.02 Ю  10 км  дымка  10/10 90 м  +15.0  +15.0  100  +14  +14    1023.1  996.2         
12:35 24.02 ЮЗ  2 км  дымка  10/10 60 м  +15.6  +15.6  100  +14  +14      996.2         
12:52 24.02 Ю  2 км  дымка  10/10 60 м  +16.0  +16.0  100  +15  +15    1023.0  995.9         
13:20 24.02 ЮЗ  1 км  дымка  10/10 60 м  +16.1  +16.1  100  +15  +15      996.2         
13:52 24.02 ЮЗ  1 км  дымка  10/10 60 м  +16.7  +16.7  100  +16  +16    1023.5  996.5         
14:52 24.02 Ю  1 км  дымка  10/10 90 м  +17.8  +17.2  96  +17  +17      996.2         
15:01 24.02 ЮЗ  5 км    10/10 120 м  +17.8  +17.2  96  +17  +17      995.9         
15:22 24.02 ЮЗ  16 км    10/10 180 м  +18.3  +16.7  90  +18  +18      995.9         
15:52 24.02 ЮЗ  16 км    8/8 300 м
[средняя] 
+18.9  +16.7  87  +20  +21    1022.6  995.9         
16:35 24.02 ЮЗ  16 км    8/5 420 м
[средняя] 
+21.7  +17.2  76  +26  +28  душно    995.5         
16:52 24.02 ЮЗ  16 км    8/5 510 м
[средняя] 
+21.7  +17.2  76  +26  +27  душно  1022.1  995.2         
17:52 24.02 ЮЗ  7
{9} 
16 км    5/5 780 м
[средняя] 
+24.0  +17.0  65  +28  +29  душно  1021.0  994.2  +15.0       
18:52 24.02 ЮЗ  6
{9} 
16 км    8/8 960 м
[средняя] 
+24.0  +16.0  61  +27  +28  жарко  1019.3  992.6         
19:52 24.02 ЮЗ  16 км    8/8 1260 м
[средняя] 
+25.0  +16.0  57  +28  +29  жарко  1018.1  991.6         
20:52 24.02 Ю  16 км    8/5 1410 м
[верхняя] 
+26.0  +15.0  51  +29  +29  душно  1017.3  990.6         
21:52 24.02 ЮЗ  16 км    8/8 1500 м
[верхняя] 
+26.0  +14.0  48  +28  +28  жарко  1017.5  990.6         
22:52 24.02 Ю  16 км    8/5 1950 м
[верхняя] 
+23.9  +15.0  57  +27  +27  жарко  1017.5  990.6         
23:52 24.02 Ю  16 км    8/0 2400 м
[средняя верхняя] 
+22.0  +15.0  64  +25  +25  комфорт  1017.3  990.6  +22.2       
00:52 25.02 Ю  16 км    5/0 2400 м
[средняя верхняя] 
+21.7  +14.4  63  +25  +25  комфорт  1017.8  990.9         
01:52 25.02 Ю  16 км    8/0 6000 м
[средняя верхняя] 
+21.7  +15.0  66  +25  +25  комфорт  1017.6  990.9         
02:52 25.02 Ю  16 км    8/0 6000 м
[средняя верхняя] 
+21.0  +15.0  69  +24  +24  комфорт  1017.3  990.6         
03:52 25.02 Ю  16 км    5/0 7500 м
[верхняя] 
+21.1  +14.4  66  +24  +24  комфорт  1017.4  990.6         
04:52 25.02 Ю  7
{11} 
16 км    2/0 7500 м
[верхняя] 
+21.0  +15.0  69  +24  +24  комфорт  1017.3  990.6         
05:52 25.02 Ю  16 км    2/0 7500 м
[верхняя] 
+19.4  +15.6  79  +21  +21  комфорт  1017.4  990.9         
06:52 25.02 Ю  16 км    5/2 450 м
[верхняя] 
+18.9  +15.6  81  +20  +20    1016.8  990.3         
07:52 25.02 Ю  16 км    5/0 7500 м
[верхняя] 
+18.3  +15.6  84  +18  +18    1016.3  989.6         
08:52 25.02 Ю  16 км    5/0 2400 м
[средняя верхняя] 
+18.0  +15.0  83  +17  +17    1016.0  989.6         
09:52 25.02 Ю  16 км    2/0 7500 м
[верхняя] 
+17.2  +15.0  87  +17  +17    1016.1  989.6         
10:52 25.02 Ю  16 км    8/0 2250 м
[средняя] 
+17.2  +15.0  87  +16  +16    1016.2  989.6         
11:52 25.02 Ю  16 км    2/0 2700 м
[средняя] 
+17.2  +15.0  87  +16  +16    1016.6  989.9         
12:52 25.02 Ю  16 км    2/0 3000 м
[средняя] 
+17.8  +15.6  87  +17  +17    1016.7  989.9         
13:52 25.02 ЮЗ  16 км    5/2 540 м
[средняя] 
+19.0  +16.0  83  +20  +20    1017.6  990.9         
14:52 25.02 ЮЗ  16 км    8/8 630 м
[средняя] 
+20.6  +15.6  73  +24  +24  комфорт  1018.1  991.3         
15:25 25.02 СЗ  4 км  сильный дождь, дымка  10/10 720 м  +18.3  +17.2  93  +19  +19               
15:40 25.02 СЗ  6 км  дождь, дымка  8/8 420 м  +17.8  +17.2  96  +18  +19      992.2         
15:52 25.02 СЗ  4 км  дождь, дымка  10/10 420 м  +17.2  +17.2  100  +18  +18    1018.9  992.2         
16:11 25.02 Ю  6 км  слабый дождь, дымка  10/10 420 м  +18.0  +17.0  94  +18  +18      992.2         
16:25 25.02 ЮЗ  13 км  слабый дождь  10/10 420 м  +18.0  +17.0  94  +18  +18      991.9         
16:52 25.02 З  11 км  слабый дождь  10/10 840 м  +18.3  +17.8  97  +19  +19    1019.0  992.2         
17:52 25.02 ЮЗ  16 км    10/8 330 м
[средняя] 
+18.3  +17.2  93  +19  +19    1018.6  991.9  +17.2  +21.1  3.8   
18:52 25.02 Ю  16 км  слабый дождь  10/2 360 м
[средняя] 
+18.9  +16.1  84  +20  +23      991.3         
19:52 25.02 Ю  16 км    10/0 2100 м
[средняя] 
+19.0  +15.0  78  +20  +22    1017.9  991.3         
20:52 25.02 ЮЗ  16 км    8/0 2700 м
[средняя] 
+20.0  +14.0  68  +22  +24  комфорт  1017.9  991.3         
21:52 25.02 ЮЗ  16 км    10/0 2700 м
[средняя] 
+19.4  +14.4  73  +21  +22  комфорт  1018.5  991.6         
22:52 25.02 Ю  16 км    10/0 2550 м
[средняя] 
+18.3  +13.9  76  +19  +19    1018.2  991.3         

 

Местоположение метеостанции Charlotte / Douglas International Airport: широта 35.2133 долгота -80.9486 высота над уровнем моря 228 м.

В архиве по умолчанию представлена погода в Шарлотте за последние 1-2 суток. Обновление информации о фактической погоде в базе происходит ежечасно! Архивные данные за месяц целиком и за предыдущие месяцы Вы можете получить, выбрав интересующий диапазон дат из раскрывающегося списка и нажав кнопку "Ввод!".

Внимание! Архив погоды МЕТАР в базе сайта в настоящее время начинается c 1 января 2013 г. Нет смысла пытаться выбрать более раннюю дату.

Внимание! Время в таблицах - всемирное. Для получения местного времени необходимо прибавить поправку, которая в Шарлотте равна -5 ч.

Ветер - указаны скорость ветра в м/с и направление, откуда дует ветер: С - северный, СВ - северо-восточный, В - восточный, ЮВ - юго-восточный, Ю - южный, ЮЗ - юго-западный, З - западный, СЗ - северо-западный.
Видимость - горизонтальная дальность видимости в метрах или километрах. При видимости от 1 до 10 км при отсутствии осадков обычно наблюдается дымка, при ухудшении видимости до 1 км и менее - туман. В сухую погоду видимость может ухудшаться дымом, пылью или мглою.
Атмосферные явления - указаны явления, наблюдавшиеся в указанный момент времени.
Облачность - указаны через наклонную черту верхняя и нижняя облачность в баллах и высота нижней границы облаков в метрах. Внимание: облачность, как и прочие метеорологические величины в США измеряются автоматическими метеостанциями. Указанные значения в баллах носят условный характер и показывают процент времени, в течение которого, в среднем, лазерный луч высотомера отражался от облаков обратно.
T - Температура воздуха - температура, измеренная на высоте 2 м над землей.
Td - Температура точки росы - температура, при понижении до которой содержащийся в воздухе водяной пар достигнет насыщения.
f - Относительная влажность воздуха - влажноcть воздуха, измеренная на высоте 2 м над землей.
Te - Эффективная температура - температура, которую ощущает одетый по сезону человек в тени. Характеристика душности погоды. При расчете учитывается влияние влажности воздуха и скорости ветра на теплоощущения человека.
Tes - Эффективная температура на солнце - температура, которую ощущает человек, с поправкой на солнечный нагрев. Характеристика знойности погоды. Зависит от высоты солнца над горизонтом, облачности и скорости ветра. Ночью, в пасмурную погоду, а также при ветре 12 м/с и более поправка равна нулю.
P - Атмосферное давление - приведенное к уровню моря атмосферное давление.
Po - Атмосферное давление - измеренное на уровне метеостанции атмосферное давление.
Tmin - Минимальная температура - минимум температуры воздуха на высоте 2 м над землей.
Tmax - Максимальная температура - максимум температуры воздуха на высоте 2 м над землей.
R - Количество осадков - Количество выпавших осадков за 3 или 6 часов, мм.
SD - Снежный покров - Высота снежного покрова, см.